| time (UTC) | temp F | wind direction | speed MPH | gust MPH | rain 1hr in | rain 24hr in | rain mn in | humidity % | barometer mb |
| 20260505053057 | 70 | 360 | 4.0 | 16.0 | 0.00 | 0.00 | 0.00 | 53 | 1002.3 |
| 20260505051555 | 70 | 360 | 7.0 | 17.0 | 0.00 | 0.00 | 0.00 | 53 | 1002.1 |
| 20260505041544 | 70 | 360 | 5.0 | 18.0 | 0.00 | 0.00 | 0.00 | 54 | 1002.8 |
| 20260505040044 | 70 | 360 | 5.0 | 14.0 | 0.00 | 0.00 | 0.00 | 54 | 1003.0 |
| 20260505034601 | 70 | 360 | 4.0 | 11.0 | 0.00 | 0.00 | 0.00 | 54 | 1003.0 |
| 20260505033043 | 70 | 360 | 4.0 | 10.0 | 0.00 | 0.00 | 0.00 | 55 | 1003.0 |
| 20260505031542 | 70 | 360 | 4.0 | 10.0 | 0.00 | 0.00 | 0.00 | 55 | 1003.0 |
| 20260505030047 | 70 | 360 | 3.0 | 8.0 | 0.00 | 0.00 | 0.00 | 55 | 1002.9 |
| 20260505024639 | 70 | 360 | 3.0 | 11.0 | 0.00 | 0.00 | 0.00 | 56 | 1002.8 |
| 20260505023043 | 70 | 360 | 3.0 | 6.0 | 0.00 | 0.00 | 0.00 | 57 | 1002.6 |
| 20260505021537 | 69 | 360 | 2.0 | 5.0 | 0.00 | 0.00 | 0.00 | 57 | 1002.4 |
| 20260505020051 | 70 | 360 | 1.0 | 4.0 | 0.00 | 0.00 | 0.00 | 57 | 1002.1 |
| 20260505014540 | 70 | 360 | 1.0 | 4.0 | 0.00 | 0.00 | 0.00 | 56 | 1002.0 |
| 20260505013040 | 70 | 360 | 2.0 | 5.0 | 0.00 | 0.00 | 0.00 | 56 | 1001.9 |
| 20260505011534 | 71 | 360 | 2.0 | 8.0 | 0.00 | 0.00 | 0.00 | 55 | 1001.8 |
| 20260505010034 | 71 | 360 | 3.0 | 5.0 | 0.00 | 0.00 | 0.00 | 53 | 1001.8 |
| 20260505004555 | 72 | 360 | 2.0 | 8.0 | 0.00 | 0.00 | 0.00 | 52 | 1001.8 |
| 20260505003033 | 73 | 360 | 2.0 | 6.0 | 0.00 | 0.00 | 0.00 | 51 | 1001.7 |
| 20260505001536 | 73 | 360 | 4.0 | 8.0 | 0.00 | 0.00 | 0.00 | 49 | 1001.8 |
| 20260505000036 | 74 | 192 | 4.0 | 14.0 | 0.00 | 0.00 | 0.00 | 48 | 1001.9 |
| 20260504234529 | 74 | 222 | 3.0 | 10.0 | 0.00 | 0.00 | 0.00 | 47 | 1002.1 |
| 20260504233027 | 75 | 196 | 5.0 | 17.0 | 0.00 | 0.00 | 0.00 | 45 | 1002.4 |
| 20260504231526 | 75 | 211 | 5.0 | 15.0 | 0.00 | 0.00 | 0.00 | 45 | 1002.5 |
| 20260504230026 | 76 | 197 | 9.0 | 18.0 | 0.00 | 0.00 | 0.00 | 45 | 1002.4 |
| 20260504224532 | 75 | 196 | 5.0 | 15.0 | 0.00 | 0.00 | 0.00 | 51 | 1002.6 |
| 20260504223021 | 74 | 206 | 3.0 | 12.0 | 0.00 | 0.00 | 0.00 | 51 | 1002.7 |
| 20260504221522 | 74 | 212 | 2.0 | 9.0 | 0.00 | 0.00 | 0.00 | 51 | 1002.9 |
| 20260504220019 | 74 | 187 | 1.0 | 6.0 | 0.00 | 0.00 | 0.00 | 50 | 1003.0 |
| 20260504214518 | 74 | 186 | 2.0 | 9.0 | 0.00 | 0.00 | 0.00 | 49 | 1002.8 |
| 20260504213032 | 75 | 197 | 2.0 | 7.0 | 0.00 | 0.00 | 0.00 | 50 | 1003.5 |
| 20260504211515 | 75 | 191 | 1.0 | 10.0 | 0.00 | 0.00 | 0.00 | 50 | 1003.7 |
| 20260504210011 | 75 | 192 | 3.0 | 9.0 | 0.00 | 0.00 | 0.00 | 49 | 1004.0 |
| 20260504204509 | 74 | 203 | 3.0 | 12.0 | 0.00 | 0.00 | 0.00 | 51 | 1004.0 |
| 20260504203005 | 74 | 271 | 3.0 | 19.0 | 0.00 | 0.00 | 0.00 | 52 | 1004.3 |
| 20260504201503 | 73 | 225 | 2.0 | 12.0 | 0.00 | 0.00 | 0.00 | 53 | 1004.5 |
| 20260504200006 | 74 | 184 | 6.0 | 14.0 | 0.00 | 0.00 | 0.00 | 52 | 1004.6 |
| 20260504194605 | 72 | 246 | 2.0 | 12.0 | 0.00 | 0.00 | 0.00 | 56 | 1004.7 |
| 20260504193057 | 70 | 223 | 7.0 | 15.0 | 0.00 | 0.00 | 0.00 | 56 | 1005.0 |
| 20260504191620 | 68 | 360 | 3.0 | 8.0 | 0.00 | 0.00 | 0.00 | 62 | 1005.3 |
| 20260504184603 | 68 | 360 | 1.0 | 10.0 | 0.00 | 0.00 | 0.00 | 61 | 1006.0 |
| 20260504183054 | 69 | 360 | 5.0 | 12.0 | 0.00 | 0.00 | 0.00 | 59 | 1005.8 |
| 20260504181553 | 70 | 236 | 4.0 | 14.0 | 0.00 | 0.00 | 0.00 | 57 | 1005.7 |
| 20260504180053 | 70 | 179 | 6.0 | 18.0 | 0.00 | 0.00 | 0.00 | 56 | 1005.2 |
| 20260504174550 | 70 | 194 | 6.0 | 16.0 | 0.00 | 0.00 | 0.00 | 56 | 1004.9 |
| 20260504173049 | 70 | 219 | 3.0 | 14.0 | 0.00 | 0.00 | 0.00 | 59 | 1004.9 |
| 20260504171545 | 69 | 165 | 2.0 | 9.0 | 0.00 | 0.00 | 0.00 | 62 | 1005.2 |
| 20260504081503 | 54 | 360 | 1.0 | 5.0 | 0.00 | 0.00 | 0.00 | 60 | 1007.7 |